Content
SEND FEEDBACK

Daily
Averages
Monthly
Summary
United States of America

ONEIDA, NEW YORK


Home > North America > United States > New York
Elevation: 400 feet     Latitude: 43 13N     Longitude: 075 39W

WEATHER
 
SELECT A DAY
Number of Records: 24,226;   Date Range: 5/1/12 - 9/13/14
 
SHARE

PRINT THIS DATA

[ ← Previous Day ]
WEATHER ALMANAC - MARCH 21, 2014
[ Next Day → ]
[ °C ]   °F
Weather ElementAverageHighLow
Temperature28.1 °F30.9 °F (3:53 pm)16 °F (11:53 pm)
Dewpoint23.4 °F28 °F (12:53 am)12.9 °F (11:53 pm)
Humidity82.4 %92 % (12:53 am)64 % (3:53 pm)
Barometer29.97 in30.09 in (5:53 pm)29.86 in (12:53 am)
Wind Speed12.9 mph20.7 mph (12:53 pm)
Wind Gust28.8 mph (11:53 am)
Weather ElementAverage
Visibility5.1 mi
Wind DirectionWSW (254.5 °)

Weather ElementTotal
Precipitation0.01 in
Heating Degree Days41.6 (Base 65)
Averaged from 51 records on March 21, 2014
WEATHER CONDITIONS BREAKOUT
WIND DIRECTION BREAKOUT
WEATHER BY HOUR - MARCH 21, 2014
[ °C ]   °F
Local TimeTemperatureDewpointHumidityBarometerVisibilityWind DirectionWind SpeedGust SpeedPrecipitationEventsConditions
12:53 AM30.0 °F28.0 °F92 %29.86 in1.8 miWest (270°)17.3 mph0.01 inSnowLight Snow
1:20 AM30.0 °F27.0 °F88 %29.86 in2.0 miWest (280°)13.8 mph0.00 inSnowLight Snow
1:27 AM30.0 °F27.0 °F88 %29.86 in2.5 miWest (270°)15.0 mph0.00 inSnowLight Snow
1:31 AM30.0 °F27.0 °F88 %29.86 in2.5 miWest (280°)17.3 mph0.00 inSnowLight Snow
1:44 AM30.0 °F27.0 °F88 %29.86 in3.0 miWest (280°)15.0 mph25.3 mph0.00 inSnowLight Snow
1:53 AM30.0 °F27.0 °F88 %29.88 in3.0 miWest (280°)16.1 mph24.2 mph0.00 inSnowLight Snow
2:10 AM30.0 °F27.0 °F88 %29.87 in4.0 miWest (270°)13.8 mph0.00 inSnowLight Snow
2:53 AM30.0 °F26.1 °F85 %29.89 in5.0 miWest (280°)15.0 mph0.00 inSnowLight Snow
3:11 AM30.0 °F27.0 °F88 %29.87 in3.0 miWest (270°)15.0 mph0.00 inSnowLight Snow
3:31 AM28.9 °F26.1 °F89 %29.87 in3.0 miWest (270°)16.1 mph0.00 inSnowLight Snow
3:53 AM28.9 °F26.1 °F89 %29.89 in6.0 miWest (280°)17.3 mph23.0 mph0.00 inSnowLight Snow
4:40 AM28.9 °F25.0 °F85 %29.89 in7.0 miWest (280°)16.1 mph0.00 inSnowLight Snow
4:53 AM28.9 °F24.1 °F82 %29.90 in9.0 miWest (280°)12.7 mph21.9 mph0.00 inSnowLight Snow
5:53 AM28.9 °F23.0 °F78 %29.91 in9.0 miWest (280°)16.1 mph23.0 mph0.00 inOvercast
6:03 AM28.9 °F23.0 °F78 %29.90 in9.0 miWest (280°)15.0 mph0.00 inSnowLight Snow
6:53 AM28.9 °F23.0 °F78 %29.93 in7.0 miWest (280°)11.5 mph0.00 inSnowLight Snow
7:35 AM28.0 °F24.1 °F85 %29.93 in2.0 miWest (270°)11.5 mph0.00 inSnowLight Snow
7:43 AM28.0 °F24.1 °F85 %29.93 in1.8 miWest (270°)11.5 mph20.7 mph0.00 inSnowLight Snow
7:53 AM28.0 °F24.1 °F85 %29.95 in1.5 miWest (260°)10.4 mph0.00 inSnowLight Snow
8:31 AM28.0 °F25.0 °F88 %29.94 in0.8 miWest (270°)11.5 mph0.00 inSnowLight Snow
8:38 AM28.0 °F25.0 °F88 %29.94 in1.5 miWest (280°)13.8 mph0.00 inSnowLight Snow
8:48 AM28.4 °F24.8 °F86 %29.95 in2.5 miWest (260°)13.8 mph0.00 inSnowLight Snow
8:53 AM28.0 °F25.0 °F88 %29.96 in2.0 miWest (270°)12.7 mph0.00 inSnowLight Snow
9:15 AM28.0 °F25.0 °F88 %29.95 in1.8 miWest (270°)16.1 mph0.00 inSnowLight Snow
9:24 AM28.0 °F25.0 °F88 %29.96 in2.0 miWest (260°)15.0 mph0.00 inSnowLight Snow
9:38 AM28.0 °F25.0 °F88 %29.96 in2.0 miWest (260°)13.8 mph0.00 inSnowLight Snow
9:46 AM28.0 °F25.0 °F88 %29.96 in1.2 miWest (270°)12.7 mph0.00 inSnowLight Snow
9:51 AM28.4 °F24.8 °F86 %29.97 in0.8 miWest (270°)13.8 mph0.00 inSnowLight Snow
9:53 AM28.0 °F25.0 °F88 %29.98 in0.8 miWest (280°)11.5 mph0.00 inSnowLight Snow
10:18 AM28.0 °F24.1 °F85 %29.98 in1.5 miWNW (290°)13.8 mph23.0 mph0.00 inSnowLight Snow
10:21 AM28.0 °F24.1 °F85 %29.98 in2.0 miWest (270°)16.1 mph23.0 mph0.00 inSnowLight Snow
10:41 AM28.0 °F24.1 °F85 %29.98 in1.5 miWest (280°)13.8 mph0.00 inSnowLight Snow
10:53 AM28.0 °F24.1 °F85 %30.00 in1.2 miWest (270°)13.8 mph0.00 inSnowLight Snow
11:09 AM28.0 °F24.1 °F85 %29.99 in2.0 miWest (280°)12.7 mph0.00 inSnowLight Snow
11:17 AM28.0 °F24.1 °F85 %29.99 in2.5 miWest (280°)11.5 mph0.00 inSnowLight Snow
11:24 AM28.0 °F24.1 °F85 %29.99 in3.0 miWest (280°)12.7 mph0.00 inSnowLight Snow
11:53 AM28.9 °F21.0 °F72 %30.03 in10.0 miWNW (290°)19.6 mph28.8 mph0.00 inOvercast
12:53 PM28.9 °F21.0 °F72 %30.05 in10.0 miWest (280°)20.7 mph25.3 mph0.00 inOvercast
1:09 PM28.9 °F21.0 °F72 %30.04 in10.0 miWNW (290°)13.8 mphOvercast
1:28 PM28.9 °F21.0 °F72 %30.04 in10.0 miWest (280°)17.3 mphOvercast
1:53 PM30.0 °F19.9 °F66 %30.06 in10.0 miWest (270°)17.3 mphOvercast
2:53 PM30.0 °F19.9 °F66 %30.06 in10.0 miWNW (290°)13.8 mphOvercast
3:53 PM30.9 °F19.9 °F64 %30.06 in10.0 miWNW (290°)11.5 mphOvercast
4:53 PM30.9 °F19.9 °F64 %30.08 in10.0 miWNW (290°)11.5 mphOvercast
5:53 PM30.0 °F19.9 °F66 %30.09 in10.0 miNW (310°)11.5 mphScattered Clouds
6:53 PM28.9 °F19.0 °F67 %30.08 in10.0 miWNW (300°)9.2 mphClear
7:53 PM25.0 °F19.9 °F81 %30.07 in10.0 miCalmClear
8:53 PM23.0 °F18.0 °F81 %30.09 in10.0 miCalmClear
9:53 PM21.0 °F17.1 °F85 %30.07 in10.0 miEast (90°)3.5 mphClear
10:53 PM19.9 °F17.1 °F89 %30.07 in10.0 miSE (130°)3.5 mphClear
11:53 PM16.0 °F12.9 °F88 %30.09 in10.0 miCalmClear
Hourly data recorded from KRME, located miles away from Oneida, New York







STORIES FROM OUR PARTNERS